[分享] 今日山本由伸

看板 Baseball
作者
時間
留言 26則留言,26人參與討論
推噓 20 ( 20推 0噓 6→ )
討論串 41
2022 年 05 月 14 日  歐力士 1 : 0 羅德   @大阪巨蛋          山本由伸 VS. 佐藤奨真 IP NP H HR R ER BB SO ERA 山本由伸 8.0 118 5 0 0 0 3 9 1.97 (4W-2L) 歷經了上一場大爆炸的由伸,今日在自家主場迎來本季與鴨鴨的第二次對戰, 相隔10日登板,睽違10個多月再度與伏見寅威先發搭檔。 此役展現了良好的鴨制力,主投8局,用球數118球,沒有丟掉分數, 全場被敲出5支安打,總計送出9次三振與3次保送,最快球速 157 km/h。 首局福田周平宗佑磨安打串連,外加對方野手的失誤,歐力士先馳得點, 然而自此歐力士打線再也沒有擊出安打,給了由伸點到為止的援護。 突破百球大關的由伸續投第八局,先頭打者的二壘打及四壞球保送, 來到一出局一三壘,此時讓佐藤都志也擊出雙殺打,化解失分危機。 終場羅德 0:1 歐力士,由伸收下本季第4勝, 防禦率由賽前的2.34下修至1.97。 -- 有看過又帥又強的投手嗎?如果沒有,現在讓你看看。 https://i.imgur.com/BRpfE2N.gif
--
※ 發信站: 批踢踢實業坊(ptt.cc), 來自: 1.200.33.22 (臺灣) ※ 文章網址: https://www.ptt.cc/bbs/Baseball/M.1652514487.A.335.html
1Ffp737: 好 05/14 15:48
2Fpolanco: 鴨制力XD 05/14 15:49
3Fane2001617: 笑死 平野最後一球有夠扯 05/14 15:49
4Fbooooon: 鴨制力笑死 05/14 15:49
5FWasJohnWall: 撿了 科科 05/14 15:49
6Fcpblnpb: 外角海救援成功 05/14 15:50
7Fcrayon56: 強 05/14 15:50
8Fmaimai2063: 推鴨制力 05/14 15:50
9Fsawa26: 巨大的1分 05/14 15:50
10Fcho840929: 第一局就得一分 天大的恩惠 05/14 15:51
11FRivera01: 羅德這1,2年都被裁判搞阿~ 常常重播都跟判的相反 05/14 15:52
12Fedhuang: 推鴨制力 05/14 15:52
13FAlvarez: 保送稍多 要健康的撐到大檸檬啊 05/14 15:53
14Ffatoil27: 趕快去MLB吧 不要浪費時間了 05/14 15:54
15Fjuicyfruit: 推山本 好好調整回來~ 05/14 15:54
16Fchengyu1010: 一分就能贏 太猛 05/14 15:59
17Fia220629: 這援護率 哈哈哈哈 05/14 16:00
18Fshawn0213: 今天運氣加成 05/14 16:04
19Fskylove21: 真的第一局撿到一分後面都沒安打能贏 山本今天強運 05/14 16:05
20FJIYUI: 關鍵還是八局雙殺 05/14 16:14
21Fboodharu: 援護讓人心酸 05/14 16:21
22Fwinrin32805: 降防禦率的一天 05/14 16:34
23FTrystill: 今天宗蠻多NP 05/14 16:56
24FCorydoras: 牛牛打線真的廢到笑 還不是遇到大投手欸 二安 05/14 17:42
25Ftakeda0727: 山本:1分足以 05/14 17:54
26FYofu: 又是1:0,對手真衰 05/14 19:43

完整討論串

留言數 標題 作者 日期
14 [分享] 今日山本由伸 lrhn0289 2019/05/02 16:31:08
10 [分享] 今日山本由伸 lrhn0289 2019/05/09 21:40:20
13 [分享] 今日山本由伸 lrhn0289 2019/05/28 20:27:52
21 [分享] 今日山本由伸 lrhn0289 2019/09/08 15:45:01
58 [分享] 今日山本由伸 Makimywife 2020/07/12 14:49:48
0 [分享] 今日山本由伸 matthew90236 2020/07/12 14:52:00
12 [分享] 今日山本由伸 kiversonx17 2020/07/26 21:10:17
21 [分享] 今日山本由伸 world4849844 2020/09/22 20:41:34
4 Re: [分享] 今日山本由伸 rainfruit 2020/09/22 21:06:57
17 [分享] 今日山本由伸 world4849844 2020/10/20 20:31:57
32 Re: [分享] 今日山本由伸 Zuleta 2020/10/20 22:05:17
124 [分享] 今日山本由伸 cho840929 2021/04/01 19:48:01
11 Re: [分享] 今日山本由伸 AisinGioro 2021/04/01 21:18:29
36 [分享] 今日山本由伸 cho840929 2021/04/08 19:46:14
14 [分享] 今日山本由伸 cho840929 2021/04/21 19:52:03
186 [分享] 今日山本由伸 timsun105 2021/05/12 19:49:21
8 [分享] 今日山本由伸 cho840929 2021/05/28 20:25:24
21 [分享] 今日山本由伸 cho840929 2021/06/04 19:47:14
51 [分享] 今日山本由伸 cho840929 2021/06/11 19:59:24
33 [分享] 今日山本由伸 akiraje 2021/06/25 20:00:06
25 [分享] 今日山本由伸 cho840929 2021/07/09 20:10:59
41 [分享] 今日山本由伸 ghost069 2021/07/28 14:19:09
35 [分享] 今日山本由伸 jones210272 2021/08/04 21:40:44
65 [分享] 今日山本由伸 cho840929 2021/09/03 20:07:26
52 [分享] 今日山本由伸 kkktj37 2021/09/10 19:45:37
91 [分享] 今日山本由伸 kkktj37 2021/09/18 15:38:30
54 [分享] 今日山本由伸 kkktj37 2021/09/25 16:04:19
63 [分享] 今日山本由伸 kkktj37 2021/10/09 20:23:20
21 [分享] 今日山本由伸 kkktj37 2021/10/16 16:35:54
31 [分享] 今日山本由伸 kkktj37 2021/11/20 20:53:31
0 [分享] 今日山本由伸 currykukuo 2021/11/27 22:05:49
12 [分享] 今日山本由伸 k87559527 2021/11/27 22:05:53
5 [分享] 今日山本由伸 kkktj37 2021/11/27 22:06:05
91 [分享] 今日山本由伸 kkktj37 2022/03/25 19:49:51
64 [分享] 今日山本由伸 smallstrongq 2022/04/02 15:41:51
48 [分享] 今日山本由伸 kkktj37 2022/04/02 15:55:14
55 [分享] 今日山本由伸 kkktj37 2022/04/09 16:04:00
62 [分享] 今日山本由伸 kkktj37 2022/04/19 19:32:14
35 [分享] 今日山本由伸 kkktj37 2022/04/26 20:31:32
26 >> [分享] 今日山本由伸 kkktj37 2022/05/14 15:48:03
13 [分享] 今日山本由伸 kkktj37 2022/05/21 16:29:02

Baseball 看板熱門文章

26
37

最新文章

3
11